Find OneWeb SL0650

NORAD ID: 55813 Int'l Des: 2023-029 Owner: ONEWEBN Country: UK Constellation: oneweb operational
LEOCIRCULARPOLARONEWEB_TYPE

实时位置

正在加载3D地球...

关于 OneWeb SL0650

正在加载描述...

即将过境

Passes for default location (London). Set your location on the main map for personalized predictions.

高度历史

Loading altitude history...

两行轨道根数

1 55813U 23029T 26124.78633755 .00000041 00000-0 69912-4 0 9993
2 55813 87.9146 313.6320 0001692 73.8249 286.3070 13.19724266153172
Epoch: May 4, 2026 • Age: 12 hours

当前状态

高度 1206.9 km
速度 7.25 km/s
星下点 -51.28°S, 168.6°E
发射日期 Mar 9, 2023
运行时间 3.1 years
类型 internet

技术详情

分类 Payload
质量 148.00 kg
干质量 140.00 kg
总质量 148.00 kg
长度 1.30 m
直径 1.00 m
跨度 5.00 m
形状 Trapezoid+2 pan
制造商 ONEWUS
平台类型 ARROW
阶段状态 In Orbit
所有者/国家 ONEWEBN/UK

Most Searched